Regional Weather Roundup
Issued by NWS Grand Forks, ND

Home | Current Version | Previous Version | Text Only | Print | Product List | Glossary On
Versions: 1 2 3 4 5 6 7 8 9 10 11 12 13 14 15 16 17 18 19 20 21 22 23 24 25 26 27 28 29 30 31 32 33 34 35 36 37 38 39 40 41 42 43 44 45 46 47 48 49 50
000
ASUS43 KFGF 020531
RWRFGF
PRAIRIE TO PINES  WEATHER ROUNDUP
NATIONAL WEATHER SERVICE EASTERN NORTH DAKOTA/GRAND FORKS ND
1200 AM CDT THU OCT 02 2014

 **SATELLITE DATA USED TO AUGMENT SKY COVER AT AUTOMATED STATIONS**
 *****  WEATHER ACROSS EASTERN NORTH DAKOTA  *****

CITY           SKY/WX    TMP DP  RH WIND       PRES   REMARKS
GRAND FORKS    CLOUDY    58  50  75 W8        29.75R
GRAND FRKS AFB CLOUDY    57  52  83 W10       29.77R
GRAND FRKS NWS   N/A     55 N/A N/A W7          N/A
DEVILS LAKE    CLEAR     50  43  76 W9        29.78R
FARGO          CLOUDY    59  50  72 W8        29.78S
WAHPETON ARPT  CLOUDY    54  46  76 W7        29.82R
$$

 ***** WEATHER ACROSS CENTRAL AND WESTERN NORTH DAKOTA  *****

CITY           SKY/WX    TMP DP  RH WIND       PRES   REMARKS
BISMARCK       MOCLDY    51  46  83 W7        29.87R
MINOT          PTCLDY    51  45  79 SW12      29.80S
JAMESTOWN      PTCLDY    50  47  89 W7        29.83R
MINOT AFB      MOCLDY    50  50  99 W9        29.79F
GARRISON         N/A     46  44  93 W7        29.84S
WILLISTON      PTCLDY    45  41  86 SW7       29.85S
DICKINSON      PTCLDY    43  40  89 W8        29.89R
HETTINGER      MOCLDY    42  39  89 NW5       29.93S
$$

 *****  OTHER AIRPORT OBSERVATIONS IN OUR AREA  *****

CITY           SKY/WX    TMP DP  RH WIND       PRES   REMARKS
WALHALLA       FAIR      54  50  87 W5        29.74R
GRAFTON AIRPOR CLOUDY    55  48  76 W12       29.75R
VALLEY CITY AR FAIR      50  50 100 W12       29.82S
CANDO          FAIR      43  43 100 W6        29.78S
CAVALIER APRT  FAIR      54  48  82 W8        29.74R
GWINNER          N/A     52  50  93 W7        29.84S
SHEYENNE NWR     N/A     55  51  85 W3        29.95S
ROLLA          FAIR      45  45 100 SW7       29.77S
 ***** THE ABOVE OBSERVATIONS ARE NON NWS ARE NOT QUALITY
       CONTROLLED AND MAY MIS-REPORT RAIN FOR SNOW...
$$

  *****  WEATHER ACROSS NORTHERN MINNESOTA  *****

CITY           SKY/WX    TMP DP  RH WIND       PRES   REMARKS
FLAG ISLAND    PTCLDY    55  52  88 W10       29.67S
WARROAD        CLEAR     54  48  82 SW6       29.72R
ROSEAU         CLOUDY    57  50  77 W8        29.72R
HALLOCK        CLOUDY    57  50  77 W9        29.73R
THF RVR FALLS  CLOUDY    57  50  77 W8        29.75S
BAUDETTE       CLOUDY    56  52  86 SW7       29.71R
WASKISH        CLOUDY    57  54  88 CALM      29.74S
CROOKSTON      CLOUDY    57  52  82 W10       29.76S
STEPHEN NDAWN    N/A     57  52  82 W9          N/A
GREENBUSH NDAW   N/A     55  50  82 W8          N/A
$$
  *****  WEATHER ACROSS CENTRAL AND WEST MINNESOTA  *****

CITY           SKY/WX    TMP DP  RH WIND       PRES   REMARKS
FOSSTON        CLOUDY    54  48  82 SW7       29.78S
BEMIDJI        PTCLDY    55  50  85 SW5       29.77S
PARK RAPIDS    PTCLDY    51  49  92 SW5       29.79S
ELBOW LAKE     FAIR      49  46  90 W6        29.82S
WADENA         CLEAR     48  46  93 SW3       29.81R
DETROIT LAKES  CLEAR     55  50  82 W5        29.81S
MOORHEAD       NOT AVBL
FERGUS FALLS   CLEAR     52  45  76 SW5       29.82S
MORRIS MN      CLEAR     52  48  87 W5        29.82S
STAPLES        MOCLDY    48  48 100 S5        29.81S FOG
$$
  *****  WEATHER ELSEWHERE ACROSS MINNESOTA  *****

CITY           SKY/WX    TMP DP  RH WIND       PRES   REMARKS
DULUTH         DRZL/FOG  52  50  93 SW7       29.84R VSB 1/4
INTRNTL FALLS  CLOUDY    55  53  93 SW7       29.73S
ELY            CLOUDY    50  48  93 SW7       29.80S
CLOQUET        FOG       52  50  93 SW3       29.84S VSB 1/2
WHEATON        CLEAR     50  46  87 W7        29.85S
BRAINERD       CLOUDY    54  53  97 S7        29.82S FOG
HIBBING        FOG       52  50  93 VRB3      29.81R VSB 1
ALEXANDRIA     CLEAR     50  47  89 W5        29.84R
SAINT CLOUD    CLOUDY    59  56  89 CALM      29.83F FOG
MINNEAPOLIS    CLOUDY    58  56  93 CALM      29.82F FOG
$$

  *****  WEATHER ACROSS SOUTH DAKOTA  *****

CITY           SKY/WX    TMP DP  RH WIND       PRES   REMARKS
SIOUX FALLS    CLEAR     58  51  78 N12       29.84R
BROOKINGS      NOT AVBL
WATERTOWN      CLEAR     51  47  86 CALM      29.86R
HURON          CLEAR     49  45  86 NW3       29.88R
SISSETON         N/A     47  46  97 W3        29.83R
ABERDEEN       PTCLDY    51  47  86 W7        29.86R
MITCHELL       CLEAR     53  47  79 NW6       29.89R
PIERRE         CLOUDY    53  47  79 NW7       29.91R
MOBRIDGE       MOCLDY    51  47  86 NW7       29.87S
RAPID CITY     CLOUDY    44  41  89 NW5       29.97F
$$

  *****  SOME WEATHER IN NEARBY STATES *****

CITY           SKY/WX    TMP DP  RH WIND       PRES   REMARKS
GLASGOW MT     CLOUDY    44  38  79 SE7       29.84F
GREAT FALLS MT CLEAR     43  30  60 SW10      29.94R
CHEYENNE WY    PTCLDY    39  36  89 NW10      30.07S
SCOTTSBLUFF NE PTCLDY    44  43  96 CALM      30.03R
OMAHA NE       MOCLDY    64  62  93 N3        29.79S
DES MOINES IA  FOG       63  61  93 E5        29.78F VSB 1/8
DAVENPORT IA   NOT AVBL
CHICAGO IL     CLOUDY    65  52  62 SE9       29.88F
EAU CLAIRE WI  CLOUDY    55  54  96 NE5       29.84F FOG
LA CROSSE WI   CLOUDY    61  57  87 CALM      29.82F
$$

  *****  SOME NATIONAL WEATHER *****

CITY           SKY/WX    TMP DP  RH WIND       PRES   REMARKS
LA GUARDIA NY  CLOUDY    61  57  88 NE13      30.07F
RALEIGH NC     PTCLDY    61  59  93 CALM      30.06S
ATLANTA GA     PTCLDY    70  61  73 CALM      30.04S
NEW ORLEANS LA PTCLDY    78  75  90 SE7       29.94S
OKLAHOMA CITY  MOCLDY    79  66  64 S13       29.72F
ALBUQUERQUE NM MOCLDY    65  35  33 N10       30.00R
SALT LAKE CITY CLEAR     46  37  71 SE7       30.21R
LOS ANGELES CA CLEAR     67  63  87 SW5       29.87R
BOISE ID       CLEAR     50  34  54 S7        30.15R
SEATTLE WA     MOCLDY    59  46  62 NE9       30.20R
$$

*** WEATHER ACROSS MANITOBA...SASKATCHEWAN AND ONTARIO ***
                ***ONTARIO***

CITY           SKY/WX    TMP DP  RH WIND       PRES   REMARKS
GERALDTON      LGT RAIN  52  50  93 SW8       29.80S
THUNDER BAY    CLOUDY    52  50  93 SE3       29.81F FOG
SIOUX LOOKOUT  CLOUDY    52  52 100 SW9       29.67F
TORONTO        CLOUDY    59  57  94 E5        30.09F
BIG TROUT LK   CLOUDY    54  50  87 S14G21    29.48F
PICKLE LAKE    NOT AVBL
DRYDEN         CLOUDY    54  52  94 SW10G18   29.66S
KENORA         CLOUDY    54  54 100 SW10      29.66
$$
                *** MANITOBA***

CITY           SKY/WX    TMP DP  RH WIND       PRES   REMARKS
BRANDON        PTCLDY    46  45  93 W9        29.73R
DAUPHIN        CLEAR     48  45  87 W12       29.66S
ISLAND LAKE    LGT RAIN  54  52  94 SW7       29.38
PILOT MOUND      N/A     50  45  81 W6          N/A
THE PAS        CLOUDY    45  41  87 W14       29.58R
THOMPSON       DRIZZLE   48  48 100 NW13G18   29.37R
WINNIPEG       MOCLDY    55  48  76 W14       29.68R
LYNN LAKE      CLOUDY    45  43  93 NW14G21   29.47R FOG
CHURCHILL      LGT RAIN  41  41 100 E7        29.29F FOG
GILLAM         LGT RAIN  50  50 100 W5        29.26S FOG
$$
                ***SASKATCHEWAN***

CITY           SKY/WX    TMP DP  RH WIND       PRES   REMARKS
ESTEVAN        PTCLDY    45  41  87 W7        29.80F
KINDERSLEY     LGT RAIN  39  37  93 NW14G23   29.84R
LLOYDMINSTER   MOCLDY    41  34  75 W18G24    29.76R
PRINCE ALBERT  PTCLDY    41  36  81 W8        29.67R
REGINA         PTCLDY    37  36  93 SW8       29.77S
YORKTON        CLEAR     43  39  87 SW9       29.71R
N. BATTLEFORD  CLOUDY    50  30  46 W10       29.76R
LA RONGE       CLEAR     28  28 100 SW3       29.65R
SASKATOON      PTCLDY    37  32  81 W8        29.75R
SWIFT CURRENT  CLOUDY    46  37  71 W5        29.77R
$$
NOTE: THESE ARE AUTOMATED STATIONS WITH LIMITED QUALITY CONTROL
      "FAIR" INDICATES FEW OR NO CLOUDS BELOW 12,000 FEET WITH NO
      SIGNIFICANT WEATHER AND/OR OBSTRUCTIONS TO VISIBILITY.
      SKY/WX - SKY CONDITION AND SIGNIFICANT WEATHER.
      TMP - AIR TEMPERATURE.    DP   - DEWPOINT TEMPERATURE.
      RH  - RELATIVE HUMIDITY.  PRES - PRESSURE.
      HX  - HEAT INDEX.         WCI  - WIND CHILL INDEX.
$


USA.gov is the U.S. government's official web portal to all federal, state and local government web resources and services.